Regional Weather Roundup
Issued by NWS

Home | Current Version | Previous Version | Text Only | Print | Product List | Glossary Off
Versions: 1 2 3 4 5 6 7 8 9 10 11 12 13 14 15 16 17 18 19 20 21 22 23 24 25 26 27 28 29 30 31 32 33 34 35 36 37 38 39 40 41 42 43 44 45 46 47 48 49 50

000
ASUS43 KLMK 302210
RWRKY
KENTUCKY REGIONAL WEATHER ROUNDUP
NATIONAL WEATHER SERVICE LOUISVILLE KY
600 PM EDT SAT AUG 30 2014

NOTE "FAIR" INDICATES FEW OR NO CLOUDS BELOW 12,000 FEET
WITH NO SIGNIFICANT WEATHER AND/OR OBSTRUCTIONS TO VISIBILITY.

KYZ001>023-026-027-061>063-070>075-302300-
WESTERN AND SOUTH CENTRAL KENTUCKY

CITY           SKY/WX    TMP DP  RH WIND       PRES   REMARKS
PADUCAH        CLOUDY    78  73  84 S6        30.00S
HENDERSON      CLOUDY    72  68  88 S8        30.02S
OWENSBORO      LGT RAIN  73  73 100 MISG        N/A  FOG
HOPKINSVILLE   CLOUDY    77  76  96 S1        30.03S
BOWLING GREEN  CLOUDY    78  73  84 SW5       30.04F
GLASGOW        RAIN      79  71  76 CALM      30.04F
$$

KYZ024-025-028>034-038-045-046-053-302300-
NORTH CENTRAL KENTUCKY

CITY           SKY/WX    TMP DP  RH WIND       PRES   REMARKS
LOUISVILLE/SDF LGT RAIN  77  72  84 W7        30.03S
LOUISVILLE/LOU LGT RAIN  76  71  85 SW3       30.04S
FORT KNOX      DRIZZLE   75  73  91 W7        30.04S
$$

KYZ035>037-039>044-047>052-055>060-089>105-302300-
NORTHEAST KENTUCKY

CITY           SKY/WX    TMP DP  RH WIND       PRES   REMARKS
LEXINGTON      CLOUDY    84  68  58 SW7       30.05S
COVINGTON      LGT RAIN  75  70  84 S9        30.04R
FRANKFORT      CLOUDY    82  70  66 SW8       30.03R
$$

KYZ054-064>069-076>088-106>120-302300-
SOUTHEAST KENTUCKY

CITY           SKY/WX    TMP DP  RH WIND       PRES   REMARKS
JACKSON        PTSUNNY   84  68  58 VRB5      30.08S
LONDON         PTSUNNY   87  66  49 SW8       30.08S
SOMERSET       CLOUDY    82  66  57 CALM      30.07S
MIDDLESBORO    MOSUNNY   87  68  53 SW3       30.08S HX  90
MONTICELLO     PTCLDY    85  72  65 SE6       30.07F HX  91
$$



USA.gov is the U.S. government's official web portal to all federal, state and local government web resources and services.